Weather in Kremenskoye

Russia / Kaluga Oblast     55°06′26″N   35°57′12″E
temp.,
°C
wind,
m/s
gust,
m/s
humid.,
%
clouds,
%
prec.,
mm/h
press.,
hPa
HPBL,
m
23 april, fri
fri2300:00+7s3119342 0.3 1014278
03:00+6s4139435 0.3 1013353
06:00+6sse4129395 0.0 1013380
09:00+10s6147725 0.1 1012829
12:00+12ssw61374100 0.8 10121733
15:00+5w2594100 5.1 1014333
18:00+7s2382100 0.8 1013554
21:00+4sse2494100 0.9 1013133
24 april, sat
sat2400:00+5s2596100 1.6 1011559
03:00+4w3691100 2.3 1010274
06:00+3w2494100 0.1 1009258
09:00+5w45725 0.3 1009873
12:00+8w455297 0.1 10081731
15:00+7nw5557100 1.1 10081438
18:00+6nw3760100 0.4 10091486
21:00+3w411755 0.5 1010319
25 april, sun
sun2500:00+1w411795 0.0 1011368
03:000wsw410885 0.0 1012310
06:00−1wsw310915 0.0 1012349
09:00+4w576974 0.1 10111136
12:00+5wsw6860100 0.9 10111684
15:00+6wsw685083 1.6 10111909
18:00+5w586369 0.5 10121445
21:000wsw37815 0.5 1013145
26 april, mon
mon2600:00−1wsw310875 0.0 1014246
03:00−1sw38885 0.0 1014223
06:00−1sw37875 0.0 1014235
09:00+4sw46635 0.0 1013885
12:00+7wsw4648100 0.6 10121848
15:00+7wsw465187 1.4 10111580
18:00+5wsw3567100 1.4 1011615
21:00+2wsw2386100 1.6 101144
27 april, tue
tue2700:00+1wsw2789100 0.0 1011145
03:00−1wsw38936 0.0 1011179
06:00−1sw27935 0.0 1012190
09:00+4wsw477110 0.0 1012762
12:00+7wsw5653100 0.6 10121891
15:00+8wsw565199 1.6 10111600
18:00+6w366782 1.1 1012752
21:00+2w22830 1.1 101320